Regional Weather Roundup
Issued by NWS

Home | Current Version | Previous Version | Graphics & Text | Print | Product List | Glossary On
Versions: 1 2 3 4 5 6 7 8 9 10 11 12 13 14 15 16 17 18 19 20 21 22 23 24 25 26 27 28 29 30 31 32 33 34 35 36 37 38 39 40 41 42 43 44 45 46 47 48 49 50
000
ASUS45 KCYS 221910
RWRWY

WYOMING REGIONAL WEATHER ROUNDUP
NATIONAL WEATHER SERVICE CHEYENNE WY
1200 PM MST SAT NOV 22 2014

NOTE:  "FAIR" INDICATES FEW OR NO CLOUDS BELOW 12,000 FEET
WITH NO SIGNIFICANT WEATHER AND/OR OBSTRUCTIONS TO VISIBILITY.

WYZ001-222000-
YELLOWSTONE NATIONAL PARK

CITY           SKY/WX    TMP DP  RH WIND       PRES   REMARKS
LK YELLOWSTONE   N/A     31  27  85 VRB6      29.56F WCI  25
W YELLOWSTONE  NOT AVBL

$$
WYZ002>013-054>058-071-098>099-222000-
NORTHERN WYOMING

CITY           SKY/WX    TMP DP  RH WIND       PRES   REMARKS
JACKSON        LGT SNOW  34  34 100 S20       29.61F FOG     WCI  22
CODY           PTSUNNY   43  32  65 SW24G32   29.45F
GREYBULL       MOSUNNY   35  24  64 CALM      29.48F
WORLAND        PTSUNNY   39  28  64 S20       29.46F WCI  29
SHERIDAN       MOSUNNY   61  23  23 CALM      29.37F
BUFFALO        MOSUNNY   51  27  39 S21       29.44F
GILLETTE       CLOUDY    43  28  55 SW24G33   29.43F
HULETT           N/A    N/A N/A N/A MISG        N/A
NEWCASTLE      FAIR      45  27  49 CALM      29.52F

$$
WYZ014>020-022>026-101>103-222000-
CENTRAL WYOMING

CITY           SKY/WX    TMP DP  RH WIND       PRES   REMARKS
BIG PINEY      CLOUDY    51  30  44 SW16      29.69F
PINEDALE       SNOW      32  30  93 SE13      29.69F VSB 1/4 WCI  22
DUBOIS         LGT SNOW  34  28  80 NW12G30   29.56R WCI  25
LANDER         NOT AVBL
RIVERTON       CLOUDY    42  24  49 NW5       29.57F
CASPER         PTSUNNY   46  22  38 SW24      29.60F
DOUGLAS        CLOUDY   N/A N/A N/A W26G48    29.52

$$
WYZ021-027>030-104>119-222000-
SOUTHERN WYOMING

CITY           SKY/WX    TMP DP  RH WIND       PRES   REMARKS
EVANSTON       SNOW      32  32 100 SW23G32   29.80F VSB 1/4 WCI  19
KEMMERER       LGT SNOW  34  32  93 SW23G30   29.75F WCI  22
FORT BRIDGER   LGT SNOW  35  34  96 W23G35    29.82F WCI  23
ROCK SPRINGS   SNOW      32  31  96 W18       29.79F VSB 1/4 WCI  20
DIXON          MOCLDY    48  19  32 SW22G38   29.85F
RAWLINS        PTSUNNY   42  19  39 SW28G48   29.71F
SARATOGA       CLOUDY    46  21  36 S17G24    29.78F
LARAMIE        CLOUDY    43  20  39 SW18      29.71F
CHEYENNE       CLOUDY    49  12  22 SW10      29.65F
TORRINGTON     CLOUDY    56  22  26 W13G20    29.56F
PINE BLUFFS    FAIR      54  14  20 W6        29.64F

$$



USA.gov is the U.S. government's official web portal to all federal, state and local government web resources and services.